Tracking 20942 objects as of 9-Jul-2020
HD Live streaming from Space Station
objects crossing your sky now

FENGYUN 1C DEB

Track FENGYUN 1C DEB now!
10-day predictions


NORAD ID: 30665
Int'l Code: 1999-025APX
Perigee: 842.0 km
Apogee: 957.6 km
Inclination: 99.1 °
Period: 102.8 minutes
Semi major axis: 7270 km
RCS: 0.026 m2 (small)
Launch date: May 10, 1999
Source: People's Republic of China (PRC)
Launch site: Taiyaun Space Center, China (TSC)

Note: This is SATELLITE DEBRIS
aabbcc
Your satellite tracking list
Your tracking list is empty




NASA's NSSDC Master Catalog

Two Line Element Set (TLE):
1 30665U 99025APX 20191.49378404  .00000010  00000-0  36393-4 0  9996
2 30665  99.0736 122.7197 0079506 295.1557 124.8738 14.00330229681907
Source of the keplerian elements: AFSPC